FW9338 Weather Reports


time (UTC)temp
F
wind
direction
speed
knots
gust
knots
rain 1hr
in
rain 24hr
in
rain mn
in
humidity
%
barometer
mb
20260507193016 55 135 1.7 6.1 0.00 0.00 0.00 84 1017.3
20260507190017 55 135 1.7 5.2 0.00 0.00 0.00 81 1017.4
20260507183017 55 135 1.7 7.0 0.00 0.00 0.00 80 1017.1
20260507180016 56 135 2.6 7.0 0.00 0.00 0.00 74 1017.0
20260507173017 57 135 2.6 7.0 0.00 0.00 0.00 75 1017.0
20260507170036 59 135 2.6 7.0 0.00 0.00 0.00 65 1017.2
20260507163017 59 135 1.7 8.7 0.00 0.00 0.00 67 1017.4
20260507160016 59 135 2.6 7.8 0.00 0.00 0.00 64 1017.6
20260507153016 60 135 1.7 7.8 0.00 0.00 0.00 64 1017.6
20260507150016 59 135 2.6 10.4 0.00 0.00 0.00 72 1017.7
20260507143016 59 135 2.6 8.7 0.00 0.00 0.00 73 1017.8
20260507140016 59 135 2.6 9.6 0.00 0.00 0.00 77 1018.1
20260507133016 59 135 2.6 11.3 0.00 0.00 0.00 74 1018.0
20260507130016 59 135 2.6 11.3 0.00 0.00 0.00 75 1018.0
20260507123016 59 225 2.6 12.2 0.00 0.00 0.00 75 1018.0
20260507120036 59 225 3.5 10.4 0.00 0.00 0.00 74 1018.2
20260507113016 59 180 2.6 12.2 0.00 0.00 0.00 72 1018.1
20260507110016 59 180 2.6 10.4 0.00 0.00 0.00 75 1018.3
20260507103016 58 135 2.6 8.7 0.00 0.00 0.00 73 1018.2
20260507100016 57 135 2.6 8.7 0.00 0.00 0.00 72 1018.2
20260507093016 57 135 3.5 9.6 0.00 0.00 0.00 76 1018.3
20260507090016 56 135 3.5 9.6 0.00 0.00 0.00 81 1018.2
20260507083016 55 135 2.6 9.6 0.00 0.00 0.00 83 1018.2
20260507080015 54 135 1.7 5.2 0.00 0.00 0.00 82 1018.3
20260507073016 53 90 0.9 5.2 0.00 0.00 0.00 83 1018.0
20260507070016 50 0.0 2.6 0.00 0.00 0.00 86 1017.9
20260507063036 47 0.0 0.0 0.00 0.00 0.00 87 1017.8
20260507060015 46 0.0 2.6 0.00 0.00 0.00 88 1017.7
20260507053015 45 0.0 3.5 0.00 0.00 0.00 89 1017.4
20260507050017 44 0.0 0.9 0.00 0.00 0.00 89 1017.3
20260507043017 43 0.0 0.9 0.00 0.00 0.00 89 1017.4
20260507040037 42 0.0 1.7 0.00 0.00 0.00 89 1017.4
20260507033017 42 0.0 0.9 0.00 0.00 0.00 89 1017.2
20260507030017 42 0.0 1.7 0.00 0.00 0.00 89 1017.2
20260507023057 42 0.0 0.9 0.00 0.00 0.00 88 1017.2
20260507020017 42 0.0 0.0 0.00 0.00 0.00 87 1017.1
20260507013037 43 0.0 0.9 0.00 0.00 0.00 86 1017.1
20260507010017 44 0.0 0.9 0.00 0.00 0.00 85 1017.2
20260507003037 45 0.0 0.9 0.00 0.00 0.00 83 1017.2
20260507000017 46 0.0 0.0 0.00 0.00 0.00 83 1017.2
20260506233017 46 0.0 0.0 0.00 0.00 0.00 80 1017.1
20260506230017 48 0.0 0.9 0.00 0.00 0.00 79 1017.1
20260506223017 48 0.0 1.7 0.00 0.00 0.00 78 1017.0
20260506220017 51 0.0 1.7 0.00 0.00 0.00 72 1016.9
20260506213017 53 0.0 2.6 0.00 0.00 0.00 69 1016.7
20260506210037 54 0.0 0.9 0.00 0.00 0.00 69 1016.5
20260506203037 55 0.0 1.7 0.00 0.00 0.00 66 1016.4
20260506200017 56 0.0 0.0 0.00 0.00 0.00 63 1016.1